Wind_Speed
99 100 102 106 106 102 101 99 92 90 85 83 81 77 71 67 67 72 74 75 70 69 57 61 60 58 56 44 52 49 47 43
102 104 106 103 105 105 104 106 103 94 93 89 89 84 80 74 65 68 76 74 70 65 60 62 63 64 58 48 50 54 49 48
99 103 106 107 106 105 106 103 103 104 101 96 94 92 81 77 74 76 75 70 64 67 65 69 66 62 56 41 41 53 52 48
96 96 99 102 102 102 105 106 104 108 106 100 94 93 84 75 72 75 74 67 68 70 68 68 53 53 48 52 44 46 55 48
83 82 87 90 93 95 99 104 107 107 113 103 92 90 82 69 70 70 69 71 71 75 71 67 65 61 43 46 47 44 52 51
74 72 72 71 74 79 84 90 101 109 111 103 94 88 83 63 68 67 64 69 72 75 79 72 66 63 47 44 53 44 48 49
63 58 58 57 60 66 72 76 86 97 106 97 92 88 83 54 65 68 53 61 70 68 80 81 74 58 59 53 54 49 44 47
54 53 51 50 52 56 61 65 74 82 92 89 83 82 77 64 63 50 98 71 67 58 70 81 76 62 55 61 55 49 41 46
48 46 44 38 41 45 47 52 59 68 78 76 77 75 70 75 68 58 67 72 50 25 74 74 64 58 59 56 61 61 55 44
32 31 36 30 28 29 33 38 48 54 63 67 69 68 62 69 54 62 66 70 52 54 60 68 73 61 49 59 59 54 52 46
31 37 36 30 24 19 22 30 38 42 51 57 64 64 63 69 71 67 74 76 56 86 85 78 95 88 84 55 56 60 58 47
36 28 28 29 20 18 17 26 33 39 46 52 63 67 64 72 77 76 80 86 87 87 77 83 88 80 76 83 67 64 56 52
22 19 29 18 19 16 16 20 26 31 45 53 64 71 76 68 70 80 91 87 99 103 99 89 85 86 84 83 82 79 74 68
27 26 6 13 9 7 12 14 23 32 37 48 58 68 74 77 85 83 80 82 86 95 99 105 105 95 98 100 97 91 83 80
26 10 8 5 10 8 4 9 13 21 29 35 53 66 75 78 83 88 88 90 91 91 93 98 104 102 101 95 90 89 94 86
27 18 12 5 6 7 7 11 16 14 17 26 41 54 69 79 86 88 85 87 90 92 93 92 93 87 90 90 94 89 85 82
26 24 15 10 10 11 11 11 12 19 24 27 26 30 47 61 74 83 90 91 90 88 94 96 96 95 94 94 97 93 87 84
32 22 16 13 13 9 8 14 17 24 27 27 33 37 38 47 53 64 77 89 97 101 104 104 99 96 91 85 88 86 84 80
28 25 17 17 19 15 13 15 23 29 26 31 28 34 35 38 40 47 53 62 64 69 73 79 76 76 75 74 74 76 74 75
Wind_Direction
269 269 270 270 268 266 265 264 261 260 256 256 259 262 261 254 257 269 268 270 272 272 268 273 278 286 287 286 263 256 257 263
268 266 264 262 264 263 262 263 263 255 255 254 254 258 254 255 258 260 263 265 267 268 271 273 277 283 290 295 268 255 253 259
264 262 261 259 255 256 258 256 256 255 251 251 251 253 258 258 251 253 259 264 263 267 271 272 274 280 292 287 271 260 253 256
271 267 263 260 258 255 254 254 253 253 253 249 248 251 254 254 253 256 257 259 261 264 265 268 275 283 290 286 275 264 254 252
275 272 268 264 261 258 252 250 251 252 254 251 245 247 252 252 249 257 257 257 262 266 267 272 280 289 284 282 280 267 251 249
283 277 273 268 263 259 253 247 245 247 251 251 246 242 247 246 251 253 260 257 262 264 269 273 274 276 277 277 283 270 252 247
285 281 276 271 264 259 253 248 244 242 245 249 247 242 244 239 240 245 267 287 278 276 275 269 263 267 272 275 277 273 256 245
288 286 280 277 270 262 255 248 242 241 240 243 243 241 241 230 234 231 244 270 266 284 280 268 265 270 270 271 269 265 260 247
288 288 288 280 271 264 257 250 244 241 238 237 238 234 229 231 227 209 214 232 264 206 227 258 263 269 265 260 266 263 268 255
294 308 302 293 276 271 255 243 239 236 235 231 231 230 220 226 209 210 216 225 246 220 247 268 266 260 256 248 254 252 256 263
316 314 300 298 296 275 246 233 230 227 228 224 222 224 217 222 216 209 220 221 227 231 248 260 262 262 259 257 257 251 255 258
317 296 301 297 293 273 239 223 222 218 217 214 216 218 217 224 215 205 219 220 216 228 230 236 242 246 254 257 256 252 256 261
294 283 304 284 287 266 224 212 215 204 214 210 211 214 217 207 223 222 221 222 224 227 231 241 245 245 250 255 254 257 257 261
290 283 243 273 274 238 204 207 224 225 223 214 210 213 218 221 225 222 227 225 229 232 235 242 244 247 249 252 253 256 255 259
280 211 233 259 122 116 141 185 199 229 230 218 215 210 215 221 226 232 231 233 236 239 241 243 247 247 254 256 256 253 253 253
256 243 246 156 140 119 99 147 194 202 215 221 217 219 216 219 224 230 235 238 239 240 247 250 255 249 253 251 254 255 255 255
259 251 256 181 158 141 145 163 167 188 195 194 203 226 226 226 229 230 236 241 243 246 247 248 249 253 258 258 256 256 258 254
252 249 241 209 201 208 206 178 169 161 173 184 196 211 220 221 227 233 237 240 245 246 248 252 254 257 259 252 257 257 252 248
249 246 237 226 214 226 208 178 181 176 183 189 201 209 220 219 223 228 235 239 243 247 245 248 248 248 249 249 252 249 249 245
Height
10596 10592 10585 10584 10589 10600 10596 10599 10609 10613 10623 10627 10636 10641 10643 10651 10662 10662 10665 10670 10673 10676 10678 10679 10679 10682 10683 10685 10687 10687 10687 10691
10566 10564 10561 10563 10559 10568 10575 10571 10583 10593 10596 10607 10610 10621 10629 10640 10647 10650 10650 10656 10660 10661 10665 10669 10670 10668 10669 10674 10675 10676 10676 10680
10528 10525 10524 10527 10534 10533 10539 10548 10550 10555 10563 10580 10589 10600 10616 10621 10630 10634 10636 10644 10649 10651 10654 10654 10658 10659 10659 10660 10664 10666 10669 10670
10497 10498 10495 10495 10500 10510 10514 10515 10523 10522 10531 10551 10572 10579 10594 10607 10619 10623 10629 10635 10636 10636 10642 10644 10646 10651 10653 10652 10651 10653 10658 10661
10468 10468 10464 10467 10472 10477 10484 10488 10491 10498 10494 10521 10549 10560 10576 10592 10605 10611 10618 10623 10627 10626 10631 10635 10639 10642 10647 10645 10641 10640 10644 10650
10440 10438 10438 10439 10440 10442 10447 10458 10460 10467 10468 10493 10523 10541 10558 10582 10593 10601 10603 10607 10609 10614 10612 10617 10622 10625 10637 10636 10636 10632 10631 10638
10418 10417 10413 10413 10413 10412 10417 10426 10432 10439 10445 10467 10495 10526 10541 10564 10571 10586 10597 10596 10597 10599 10595 10596 10602 10605 10616 10623 10627 10626 10623 10626
10403 10397 10394 10393 10391 10391 10393 10399 10406 10415 10426 10448 10477 10502 10524 10540 10555 10579 10580 10608 10597 10595 10576 10573 10588 10597 10599 10605 10613 10619 10614 10616
10391 10386 10381 10378 10375 10374 10376 10383 10391 10400 10411 10436 10459 10481 10502 10518 10539 10563 10575 10601 10599 10594 10575 10571 10576 10584 10587 10592 10594 10605 10606 10607
10382 10377 10371 10369 10366 10364 10366 10370 10374 10384 10396 10421 10442 10463 10483 10495 10518 10540 10559 10571 10580 10585 10564 10567 10567 10567 10569 10577 10581 10587 10594 10594
10374 10369 10364 10360 10359 10357 10359 10360 10362 10372 10384 10407 10427 10445 10464 10478 10498 10510 10531 10548 10560 10561 10553 10550 10549 10551 10558 10562 10565 10574 10579 10577
10370 10365 10361 10356 10355 10353 10355 10354 10356 10364 10374 10393 10412 10430 10446 10462 10480 10497 10506 10521 10530 10535 10528 10525 10527 10532 10534 10543 10549 10558 10564 10564
10366 10363 10357 10353 10352 10350 10352 10354 10357 10359 10371 10381 10394 10412 10430 10443 10461 10475 10487 10498 10502 10503 10510 10511 10508 10512 10522 10527 10530 10540 10547 10551
10363 10360 10357 10353 10350 10349 10350 10353 10357 10362 10369 10375 10389 10403 10416 10427 10435 10447 10460 10471 10477 10483 10489 10486 10485 10492 10503 10511 10513 10521 10529 10536
10361 10359 10357 10353 10349 10348 10350 10352 10355 10360 10366 10374 10381 10391 10405 10417 10425 10432 10444 10451 10454 10460 10464 10469 10471 10478 10482 10490 10498 10502 10503 10513
10359 10358 10356 10353 10352 10349 10353 10353 10354 10358 10363 10370 10378 10386 10394 10403 10411 10421 10428 10433 10439 10445 10449 10453 10454 10464 10465 10462 10473 10479 10480 10484
10355 10355 10354 10353 10353 10352 10353 10355 10357 10359 10361 10365 10373 10380 10387 10397 10406 10411 10415 10420 10426 10429 10430 10432 10437 10437 10438 10444 10445 10450 10457 10464
10352 10352 10352 10352 10352 10353 10354 10355 10357 10358 10363 10366 10371 10374 10379 10384 10391 10397 10403 10405 10408 10410 10412 10413 10416 10417 10419 10419 10421 10429 10435 10441
10348 10349 10350 10350 10351 10352 10354 10356 10358 10360 10362 10364 10367 10370 10374 10378 10382 10385 10387 10390 10391 10393 10394 10396 10398 10400 10404 10406 10408 10412 10415 10420